This is the latest recevied weather packets stored in our database for station/object KD8OZS. If no packets are shown the sender has not sent any weather packets the latest 10 day(s).
| Time | Temp. | Humidity | Pressure | Rain* | Wind** | Luminosity | Snow |
|---|---|---|---|---|---|---|---|
| 1778100515 | 13.33° C | 61% | 1004.3 hPa | 0 mm | - | 140 W/m² | - |
| 1778100212 | 12.78° C | 60% | 1004.1 hPa | 0 mm | - | 150 W/m² | - |
| 1778099910 | 12.78° C | 56% | 1004.1 hPa | 0 mm | - | 125 W/m² | - |
| 1778099607 | 12.78° C | 59% | 1004.3 hPa | 0 mm | - | 136 W/m² | - |
| 1778099304 | 12.78° C | 55% | 1004.6 hPa | 0 mm | - | 139 W/m² | - |
| 1778099001 | 12.78° C | 55% | 1004.7 hPa | 0 mm | - | 125 W/m² | - |
| 1778098697 | 12.78° C | 57% | 1004.3 hPa | 0 mm | - | 144 W/m² | - |
| 1778098395 | 12.78° C | 56% | 1004.5 hPa | 0 mm | - | 157 W/m² | - |
| 1778098091 | 12.78° C | 55% | 1004.5 hPa | 0 mm | - | 143 W/m² | - |
| 1778097787 | 12.78° C | 56% | 1004.5 hPa | 0 mm | - | 164 W/m² | - |
| 1778097484 | 12.78° C | 56% | 1004.5 hPa | 0 mm | - | 162 W/m² | - |
| 1778097181 | 12.78° C | 56% | 1004.7 hPa | 0 mm | - | 127 W/m² | - |
| 1778096878 | 12.78° C | 56% | 1004.5 hPa | 0 mm | - | 180 W/m² | - |
| 1778096574 | 12.78° C | 56% | 1004.5 hPa | 0 mm | - | 144 W/m² | - |
| 1778096272 | 12.78° C | 58% | 1004.3 hPa | 0 mm | - | 154 W/m² | - |
| 1778095969 | 12.78° C | 56% | 1004.5 hPa | 0 mm | - | 141 W/m² | - |
| 1778095665 | 13.33° C | 54% | 1004.5 hPa | 0 mm | - | 133 W/m² | - |
| 1778095362 | 13.89° C | 55% | 1004.2 hPa | 0 mm | - | 237 W/m² | - |
| 1778095059 | 13.89° C | 57% | 1004.5 hPa | 0 mm | - | 269 W/m² | - |
| 1778094755 | 13.33° C | 58% | 1004.3 hPa | 0 mm | - | 262 W/m² | - |
| 1778094452 | 13.33° C | 58% | 1004.3 hPa | 0 mm | - | 228 W/m² | - |
| 1778094149 | 12.78° C | 59% | 1004.6 hPa | 0 mm | - | 155 W/m² | - |
| 1778093846 | 12.78° C | 57% | 1004.7 hPa | 0 mm | - | 134 W/m² | - |
| 1778093542 | 13.33° C | 57% | 1004.3 hPa | 0 mm | - | 126 W/m² | - |
| 1778093240 | 13.33° C | 54% | 1004.8 hPa | 0 mm | - | 161 W/m² | - |
* Rain latest hour (hover to see other rain measurements)
** Current wind speed in m/s (hover to see current wind gust speed)